Time,TemperatureF,DewpointF,PressureIn,WindDirection,WindDirectionDegrees,WindSpeedMPH,WindSpeedGustMPH,Humidity,HourlyPrecipIn,Conditions,Clouds,dailyrainin,SoftwareType,DateUTC
2013-06-22 00:00:00,58.8,53.3,29.46,SW,225,0.0,0.0,82,0.00,,,0.00,VWS V14.01,2013-06-21 23:00:00,
2013-06-22 00:06:00,58.8,53.3,29.46,SW,225,0.0,0.0,82,0.00,,,0.00,VWS V14.01,2013-06-21 23:06:00,
2013-06-22 00:11:00,58.8,53.3,29.46,SW,225,0.0,0.0,82,0.00,,,0.00,VWS V14.01,2013-06-21 23:11:00,
2013-06-22 00:16:00,58.8,53.3,29.46,South,180,0.0,0.0,82,0.00,,,0.00,VWS V14.01,2013-06-21 23:16:00,
2013-06-22 00:21:00,58.3,52.8,29.46,SSW,202,0.0,0.0,82,0.00,,,0.00,VWS V14.01,2013-06-21 23:21:00,
2013-06-22 00:27:00,57.9,52.5,29.47,SW,225,0.0,0.0,82,0.00,,,0.00,VWS V14.01,2013-06-21 23:27:00,
2013-06-22 00:32:00,57.4,52.0,29.47,South,180,0.0,0.0,82,0.00,,,0.00,VWS V14.01,2013-06-21 23:32:00,
2013-06-22 00:37:00,57.0,51.9,29.46,South,180,0.0,0.0,83,0.00,,,0.00,VWS V14.01,2013-06-21 23:37:00,
2013-06-22 00:43:00,56.8,51.7,29.45,SW,225,0.0,0.0,83,0.00,,,0.00,VWS V14.01,2013-06-21 23:43:00,
2013-06-22 00:49:00,56.5,51.4,29.45,SSE,157,0.0,0.0,83,0.00,,,0.00,VWS V14.01,2013-06-21 23:49:00,
2013-06-22 00:54:00,56.3,51.2,29.46,SSW,202,0.0,0.0,83,0.00,,,0.00,VWS V14.01,2013-06-21 23:54:00,
2013-06-22 00:59:00,56.1,51.0,29.46,SW,225,0.0,0.0,83,0.00,,,0.00,VWS V14.01,2013-06-21 23:59:00,
2013-06-22 01:05:00,55.9,50.8,29.46,SW,225,0.0,0.0,83,0.00,,,0.00,VWS V14.01,2013-06-22 00:05:00,
2013-06-22 01:10:00,55.8,50.7,29.46,SW,225,0.0,0.0,83,0.00,,,0.00,VWS V14.01,2013-06-22 00:10:00,
2013-06-22 01:16:00,55.6,50.5,29.45,SW,225,0.0,0.0,83,0.00,,,0.00,VWS V14.01,2013-06-22 00:16:00,
2013-06-22 01:21:00,55.2,50.1,29.45,South,180,0.0,0.0,83,0.00,,,0.00,VWS V14.01,2013-06-22 00:21:00,
2013-06-22 01:27:00,55.2,49.8,29.44,South,180,0.0,0.0,82,0.00,,,0.00,VWS V14.01,2013-06-22 00:27:00,
2013-06-22 01:32:00,55.2,50.1,29.44,SSW,202,0.0,0.0,83,0.00,,,0.00,VWS V14.01,2013-06-22 00:32:00,
2013-06-22 01:38:00,55.0,49.9,29.45,South,180,0.0,0.0,83,0.00,,,0.00,VWS V14.01,2013-06-22 00:38:00,
2013-06-22 01:44:00,55.0,49.9,29.44,South,180,0.0,0.0,83,0.00,,,0.00,VWS V14.01,2013-06-22 00:44:00,
2013-06-22 01:50:00,54.9,49.8,29.44,SW,225,0.0,0.0,83,0.00,,,0.00,VWS V14.01,2013-06-22 00:50:00,
2013-06-22 01:56:00,54.5,49.5,29.44,South,180,0.0,0.0,83,0.00,,,0.00,VWS V14.01,2013-06-22 00:56:00,
2013-06-22 02:02:00,54.5,49.8,29.44,South,180,0.0,0.0,84,0.00,,,0.00,VWS V14.01,2013-06-22 01:02:00,
2013-06-22 02:08:00,54.3,49.6,29.44,SSE,157,0.0,0.0,84,0.00,,,0.00,VWS V14.01,2013-06-22 01:08:00,
2013-06-22 02:14:00,54.3,49.6,29.44,SSW,202,0.0,0.0,84,0.00,,,0.00,VWS V14.01,2013-06-22 01:14:00,
2013-06-22 02:19:00,54.5,49.8,29.44,SSW,202,0.0,0.0,84,0.00,,,0.00,VWS V14.01,2013-06-22 01:19:00,
2013-06-22 02:25:00,54.7,49.7,29.43,SW,225,0.0,0.0,83,0.00,,,0.00,VWS V14.01,2013-06-22 01:25:00,
2013-06-22 02:31:00,54.7,49.7,29.44,SW,225,0.0,0.0,83,0.00,,,0.00,VWS V14.01,2013-06-22 01:31:00,
2013-06-22 02:37:00,54.7,49.3,29.44,North,0,0.0,0.0,82,0.00,,,0.00,VWS V14.01,2013-06-22 01:37:00,
2013-06-22 02:43:00,54.7,49.0,29.43,SSW,202,0.0,0.0,81,0.00,,,0.00,VWS V14.01,2013-06-22 01:43:00,
2013-06-22 02:49:00,54.7,49.0,29.43,SW,225,0.0,0.0,81,0.00,,,0.00,VWS V14.01,2013-06-22 01:49:00,
2013-06-22 02:54:00,54.7,49.0,29.43,South,180,0.0,0.0,81,0.00,,,0.00,VWS V14.01,2013-06-22 01:54:00,
2013-06-22 03:04:00,54.5,48.8,29.43,SSW,202,0.0,0.0,81,0.00,,,0.00,VWS V14.01,2013-06-22 02:04:00,
2013-06-22 03:10:00,54.5,48.5,29.42,South,180,0.0,0.0,80,0.00,,,0.00,VWS V14.01,2013-06-22 02:10:00,
2013-06-22 03:16:00,54.3,48.3,29.42,SSW,202,0.0,0.0,80,0.00,,,0.00,VWS V14.01,2013-06-22 02:16:00,
2013-06-22 03:22:00,54.3,48.6,29.42,SW,225,0.0,0.0,81,0.00,,,0.00,VWS V14.01,2013-06-22 02:22:00,
2013-06-22 03:28:00,54.3,48.6,29.41,SSW,202,0.0,0.0,81,0.00,,,0.00,VWS V14.01,2013-06-22 02:28:00,
2013-06-22 03:33:00,54.1,48.4,29.41,SW,225,0.0,0.0,81,0.00,,,0.00,VWS V14.01,2013-06-22 02:33:00,
2013-06-22 03:39:00,54.1,48.4,29.41,South,180,0.0,0.0,81,0.00,,,0.00,VWS V14.01,2013-06-22 02:39:00,
2013-06-22 03:45:00,54.1,48.4,29.41,South,180,0.0,0.0,81,0.00,,,0.00,VWS V14.01,2013-06-22 02:45:00,
2013-06-22 03:51:00,54.3,48.6,29.40,SSW,202,0.0,0.0,81,0.00,,,0.00,VWS V14.01,2013-06-22 02:51:00,
2013-06-22 03:56:00,54.3,48.6,29.41,SSW,202,0.0,0.0,81,0.00,,,0.00,VWS V14.01,2013-06-22 02:56:00,
2013-06-22 04:02:00,54.3,48.9,29.40,South,180,0.0,0.0,82,0.00,,,0.00,VWS V14.01,2013-06-22 03:02:00,
2013-06-22 04:08:00,53.8,49.1,29.40,SW,225,0.0,0.0,84,0.00,,,0.00,VWS V14.01,2013-06-22 03:08:00,
2013-06-22 04:13:00,53.4,48.7,29.41,SSW,202,0.0,0.0,84,0.00,,,0.00,VWS V14.01,2013-06-22 03:13:00,
2013-06-22 04:18:00,53.2,48.8,29.40,SSW,202,0.0,0.0,85,0.00,,,0.00,VWS V14.01,2013-06-22 03:18:00,
2013-06-22 04:24:00,53.2,48.8,29.41,SSW,202,0.0,0.0,85,0.00,,,0.00,VWS V14.01,2013-06-22 03:24:00,
2013-06-22 04:30:00,52.9,48.8,29.40,SSW,202,0.0,0.0,86,0.00,,,0.00,VWS V14.01,2013-06-22 03:30:00,
2013-06-22 04:35:00,52.9,49.1,29.40,SW,225,0.0,0.0,87,0.00,,,0.00,VWS V14.01,2013-06-22 03:35:00,
2013-06-22 04:41:00,52.5,49.0,29.40,SSW,202,0.0,0.0,88,0.00,,,0.00,VWS V14.01,2013-06-22 03:41:00,
2013-06-22 04:46:00,52.3,49.2,29.40,SW,225,0.0,0.0,89,0.02,,,0.02,VWS V14.01,2013-06-22 03:46:00,
2013-06-22 04:52:00,52.3,49.2,29.40,SSW,202,0.0,0.0,89,0.02,,,0.02,VWS V14.01,2013-06-22 03:52:00,
2013-06-22 04:57:00,52.3,49.5,29.39,South,180,0.0,0.0,90,0.02,,,0.02,VWS V14.01,2013-06-22 03:57:00,
2013-06-22 05:01:00,52.3,49.5,29.39,South,180,0.0,0.0,90,0.04,,,0.04,VWS V14.01,2013-06-22 04:01:00,
2013-06-22 05:02:00,52.3,49.5,29.39,South,180,0.0,0.0,90,0.04,,,0.04,VWS V14.01,2013-06-22 04:02:00,
2013-06-22 05:03:00,52.3,49.5,29.39,SSW,202,0.0,0.0,90,0.04,,,0.04,VWS V14.01,2013-06-22 04:03:00,
2013-06-22 05:08:00,52.3,49.8,29.39,South,180,0.0,0.0,91,0.04,,,0.04,VWS V14.01,2013-06-22 04:08:00,
2013-06-22 05:13:00,52.3,49.8,29.39,SSE,157,0.0,0.0,91,0.06,,,0.06,VWS V14.01,2013-06-22 04:13:00,
2013-06-22 05:18:00,52.3,49.8,29.39,South,180,0.0,0.0,91,0.08,,,0.08,VWS V14.01,2013-06-22 04:18:00,
2013-06-22 05:19:00,52.3,49.8,29.39,SSW,202,0.0,0.0,91,0.08,,,0.08,VWS V14.01,2013-06-22 04:19:00,
2013-06-22 05:25:00,52.2,49.7,29.39,SSW,202,0.0,0.0,91,0.08,,,0.08,VWS V14.01,2013-06-22 04:25:00,
2013-06-22 05:31:00,52.0,49.5,29.39,SSE,157,0.0,0.0,91,0.08,,,0.08,VWS V14.01,2013-06-22 04:31:00,
2013-06-22 05:37:00,52.0,49.8,29.37,SSW,202,0.0,0.0,92,0.08,,,0.08,VWS V14.01,2013-06-22 04:37:00,
2013-06-22 05:43:00,51.8,49.5,29.38,SW,225,0.0,0.0,92,0.08,,,0.08,VWS V14.01,2013-06-22 04:43:00,
2013-06-22 05:49:00,51.8,49.5,29.37,South,180,0.0,0.0,92,0.06,,,0.08,VWS V14.01,2013-06-22 04:49:00,
2013-06-22 05:54:00,52.0,49.8,29.37,South,180,0.0,0.0,92,0.08,,,0.10,VWS V14.01,2013-06-22 04:54:00,
2013-06-22 06:00:00,52.0,49.8,29.37,SSE,157,0.0,0.0,92,0.08,,,0.10,VWS V14.01,2013-06-22 05:00:00,
2013-06-22 06:06:00,52.0,49.8,29.37,SSE,157,0.0,0.0,92,0.06,,,0.10,VWS V14.01,2013-06-22 05:06:00,
2013-06-22 06:12:00,52.2,50.0,29.36,SSW,202,0.0,0.0,92,0.04,,,0.10,VWS V14.01,2013-06-22 05:12:00,
2013-06-22 06:18:00,52.3,50.0,29.36,South,180,0.0,0.0,92,0.04,,,0.10,VWS V14.01,2013-06-22 05:18:00,
2013-06-22 06:24:00,52.3,50.0,29.36,SSW,202,0.0,0.0,92,0.02,,,0.10,VWS V14.01,2013-06-22 05:24:00,
2013-06-22 06:30:00,52.5,50.2,29.36,SSW,202,0.0,0.0,92,0.02,,,0.10,VWS V14.01,2013-06-22 05:30:00,
2013-06-22 06:35:00,52.7,50.7,29.35,SSW,202,0.0,0.0,93,0.02,,,0.10,VWS V14.01,2013-06-22 05:35:00,
2013-06-22 06:41:00,52.9,50.9,29.35,SSE,157,0.0,0.0,93,0.02,,,0.10,VWS V14.01,2013-06-22 05:41:00,
2013-06-22 06:47:00,52.9,50.9,29.35,South,180,0.0,0.0,93,0.02,,,0.10,VWS V14.01,2013-06-22 05:47:00,
2013-06-22 06:53:00,53.2,51.2,29.35,South,180,0.0,0.0,93,0.02,,,0.10,VWS V14.01,2013-06-22 05:53:00,
2013-06-22 06:59:00,53.2,51.2,29.35,South,180,0.0,0.0,93,0.00,,,0.10,VWS V14.01,2013-06-22 05:59:00,
2013-06-22 07:05:00,53.2,51.2,29.35,South,180,0.0,0.0,93,0.00,,,0.10,VWS V14.01,2013-06-22 06:05:00,
2013-06-22 07:10:00,53.2,51.2,29.35,SSE,157,0.0,0.0,93,0.00,,,0.10,VWS V14.01,2013-06-22 06:10:00,
2013-06-22 07:15:00,53.4,51.4,29.35,South,180,0.0,0.0,93,0.02,,,0.12,VWS V14.01,2013-06-22 06:15:00,
2013-06-22 07:20:00,53.4,51.4,29.35,SW,225,0.0,0.0,93,0.02,,,0.12,VWS V14.01,2013-06-22 06:20:00,
2013-06-22 07:26:00,53.6,51.3,29.35,SSE,157,0.0,0.0,92,0.02,,,0.12,VWS V14.01,2013-06-22 06:26:00,
2013-06-22 07:32:00,53.8,51.5,29.35,SSE,157,0.0,0.0,92,0.02,,,0.12,VWS V14.01,2013-06-22 06:32:00,
2013-06-22 07:38:00,54.0,51.7,29.34,SSW,202,0.0,0.0,92,0.02,,,0.12,VWS V14.01,2013-06-22 06:38:00,
2013-06-22 07:44:00,54.1,51.8,29.34,SSE,157,0.0,0.0,92,0.02,,,0.12,VWS V14.01,2013-06-22 06:44:00,
2013-06-22 07:49:00,54.3,52.0,29.34,SSW,202,0.0,0.0,92,0.02,,,0.12,VWS V14.01,2013-06-22 06:49:00,
2013-06-22 07:55:00,54.3,52.0,29.34,South,180,0.0,0.0,92,0.02,,,0.12,VWS V14.01,2013-06-22 06:55:00,
2013-06-22 08:01:00,54.5,52.2,29.34,SSW,202,0.0,0.0,92,0.02,,,0.12,VWS V14.01,2013-06-22 07:01:00,
2013-06-22 08:07:00,54.7,52.4,29.34,SW,225,0.0,0.0,92,0.02,,,0.12,VWS V14.01,2013-06-22 07:07:00,
2013-06-22 08:12:00,54.9,52.6,29.34,SSW,202,0.0,0.0,92,0.02,,,0.12,VWS V14.01,2013-06-22 07:12:00,
2013-06-22 08:18:00,55.0,52.4,29.34,SSW,202,0.0,0.0,91,0.00,,,0.12,VWS V14.01,2013-06-22 07:18:00,
2013-06-22 08:24:00,55.2,52.6,29.34,South,180,0.0,0.0,91,0.00,,,0.12,VWS V14.01,2013-06-22 07:24:00,
2013-06-22 08:29:00,55.2,52.6,29.34,South,180,0.0,0.0,91,0.00,,,0.12,VWS V14.01,2013-06-22 07:29:00,
2013-06-22 08:34:00,55.4,52.8,29.34,South,180,0.0,0.0,91,0.00,,,0.12,VWS V14.01,2013-06-22 07:34:00,
2013-06-22 08:40:00,55.9,53.3,29.33,SW,225,0.0,0.0,91,0.00,,,0.12,VWS V14.01,2013-06-22 07:40:00,
2013-06-22 08:46:00,56.5,53.9,29.33,SW,225,0.0,0.0,91,0.00,,,0.12,VWS V14.01,2013-06-22 07:46:00,
2013-06-22 08:52:00,57.2,54.3,29.32,SW,225,0.0,0.0,90,0.00,,,0.12,VWS V14.01,2013-06-22 07:52:00,
2013-06-22 08:57:00,57.9,54.7,29.32,SSW,202,0.0,0.0,89,0.00,,,0.12,VWS V14.01,2013-06-22 07:57:00,
2013-06-22 09:03:00,58.6,54.8,29.32,SW,225,0.0,0.0,87,0.00,,,0.12,VWS V14.01,2013-06-22 08:03:00,
2013-06-22 09:09:00,59.4,55.5,29.32,South,180,0.0,0.0,87,0.00,,,0.12,VWS V14.01,2013-06-22 08:09:00,
2013-06-22 09:15:00,59.7,54.9,29.31,SSW,202,0.0,0.0,84,0.00,,,0.12,VWS V14.01,2013-06-22 08:15:00,
2013-06-22 09:21:00,60.1,55.3,29.31,SSW,202,0.0,0.0,84,0.00,,,0.12,VWS V14.01,2013-06-22 08:21:00,
2013-06-22 09:26:00,60.1,55.3,29.31,SSE,157,0.0,0.0,84,0.00,,,0.12,VWS V14.01,2013-06-22 08:26:00,
2013-06-22 09:32:00,59.9,55.1,29.31,SSW,202,0.0,0.0,84,0.00,,,0.12,VWS V14.01,2013-06-22 08:32:00,
2013-06-22 09:38:00,59.5,54.7,29.31,SSW,202,0.0,0.0,84,0.00,,,0.12,VWS V14.01,2013-06-22 08:38:00,
2013-06-22 09:44:00,58.8,54.0,29.31,SSW,202,0.0,0.0,84,0.00,,,0.12,VWS V14.01,2013-06-22 08:44:00,
2013-06-22 09:50:00,60.6,55.4,29.31,SSW,202,0.0,0.0,83,0.00,,,0.12,VWS V14.01,2013-06-22 08:50:00,
2013-06-22 09:55:00,62.2,56.0,29.31,SW,225,0.0,0.0,80,0.00,,,0.12,VWS V14.01,2013-06-22 08:55:00,
2013-06-22 10:00:00,63.7,56.0,29.30,SW,225,0.0,0.0,76,0.00,,,0.12,VWS V14.01,2013-06-22 09:00:00,
2013-06-22 10:06:00,63.0,55.0,29.30,SW,225,0.0,0.0,75,0.00,,,0.12,VWS V14.01,2013-06-22 09:06:00,
2013-06-22 10:12:00,62.4,54.8,29.30,SW,225,0.0,0.0,76,0.00,,,0.12,VWS V14.01,2013-06-22 09:12:00,
2013-06-22 10:18:00,63.7,55.6,29.29,SW,225,0.0,0.0,75,0.00,,,0.12,VWS V14.01,2013-06-22 09:18:00,
2013-06-22 10:23:00,65.1,55.9,29.29,NNW,337,0.0,0.0,72,0.00,,,0.12,VWS V14.01,2013-06-22 09:23:00,
2013-06-22 10:28:00,66.2,56.1,29.28,SW,225,0.0,0.0,70,0.00,,,0.12,VWS V14.01,2013-06-22 09:28:00,
2013-06-22 10:34:00,66.9,55.2,29.29,SW,225,0.0,0.0,66,0.00,,,0.12,VWS V14.01,2013-06-22 09:34:00,
2013-06-22 10:39:00,67.6,55.4,29.29,NNW,337,0.0,0.0,65,0.00,,,0.12,VWS V14.01,2013-06-22 09:39:00,
2013-06-22 10:44:00,67.8,55.2,29.29,SW,225,0.0,0.0,64,0.00,,,0.12,VWS V14.01,2013-06-22 09:44:00,
2013-06-22 10:50:00,67.3,54.3,29.29,South,180,0.0,0.0,63,0.00,,,0.12,VWS V14.01,2013-06-22 09:50:00,
2013-06-22 10:55:00,66.7,53.3,29.29,SW,225,0.0,0.0,62,0.00,,,0.12,VWS V14.01,2013-06-22 09:55:00,
2013-06-22 11:01:00,66.7,53.3,29.29,SSW,202,0.0,0.0,62,0.00,,,0.12,VWS V14.01,2013-06-22 10:01:00,
2013-06-22 11:06:00,67.3,54.3,29.29,SW,225,0.0,0.0,63,0.00,,,0.12,VWS V14.01,2013-06-22 10:06:00,
2013-06-22 11:11:00,67.3,53.0,29.29,SSE,157,0.0,0.0,60,0.00,,,0.12,VWS V14.01,2013-06-22 10:11:00,
2013-06-22 11:17:00,66.0,52.6,29.29,SW,225,0.0,0.0,62,0.00,,,0.12,VWS V14.01,2013-06-22 10:17:00,
2013-06-22 11:23:00,65.3,52.4,29.29,SSW,202,0.0,0.0,63,0.00,,,0.12,VWS V14.01,2013-06-22 10:23:00,
2013-06-22 11:29:00,64.8,52.3,29.28,SSW,202,0.0,0.0,64,0.00,,,0.12,VWS V14.01,2013-06-22 10:29:00,
2013-06-22 11:34:00,65.1,52.6,29.28,SSE,157,0.0,0.0,64,0.00,,,0.12,VWS V14.01,2013-06-22 10:34:00,
2013-06-22 11:40:00,66.4,53.4,29.28,SW,225,0.0,0.0,63,0.00,,,0.12,VWS V14.01,2013-06-22 10:40:00,
2013-06-22 11:45:00,66.7,53.3,29.29,NE,45,0.0,0.0,62,0.00,,,0.12,VWS V14.01,2013-06-22 10:45:00,
2013-06-22 11:50:00,67.1,53.2,29.29,South,180,0.0,0.0,61,0.00,,,0.12,VWS V14.01,2013-06-22 10:50:00,
2013-06-22 11:56:00,67.3,53.4,29.29,NNE,22,0.0,0.0,61,0.00,,,0.12,VWS V14.01,2013-06-22 10:56:00,
2013-06-22 12:02:00,66.4,52.6,29.29,SSW,202,0.0,0.0,61,0.00,,,0.12,VWS V14.01,2013-06-22 11:02:00,
2013-06-22 12:08:00,66.0,53.1,29.28,South,180,0.0,0.0,63,0.00,,,0.12,VWS V14.01,2013-06-22 11:08:00,
2013-06-22 12:13:00,65.3,52.4,29.28,SSW,202,0.0,0.0,63,0.00,,,0.12,VWS V14.01,2013-06-22 11:13:00,
2013-06-22 12:19:00,65.3,52.0,29.28,NNE,22,0.0,0.0,62,0.00,,,0.12,VWS V14.01,2013-06-22 11:19:00,
2013-06-22 12:25:00,66.0,52.6,29.28,South,180,0.0,0.0,62,0.00,,,0.12,VWS V14.01,2013-06-22 11:25:00,
2013-06-22 12:31:00,67.6,53.2,29.28,SSW,202,0.0,0.0,60,0.00,,,0.12,VWS V14.01,2013-06-22 11:31:00,
2013-06-22 12:37:00,67.8,52.5,29.27,SW,225,0.0,0.0,58,0.00,,,0.12,VWS V14.01,2013-06-22 11:37:00,
2013-06-22 12:42:00,67.8,52.5,29.27,SSW,202,0.0,0.0,58,0.00,,,0.12,VWS V14.01,2013-06-22 11:42:00,
2013-06-22 12:48:00,67.8,53.0,29.27,SSW,202,0.0,0.0,59,0.00,,,0.12,VWS V14.01,2013-06-22 11:48:00,
2013-06-22 12:54:00,67.6,52.3,29.27,SSW,202,0.0,0.0,58,0.00,,,0.12,VWS V14.01,2013-06-22 11:54:00,
2013-06-22 12:59:00,67.3,52.5,29.27,SSW,202,0.0,0.0,59,0.00,,,0.12,VWS V14.01,2013-06-22 11:59:00,
2013-06-22 13:04:00,66.7,51.9,29.27,SW,225,0.0,0.0,59,0.00,,,0.12,VWS V14.01,2013-06-22 12:04:00,
2013-06-22 13:10:00,66.7,51.9,29.26,North,0,0.0,0.0,59,0.00,,,0.12,VWS V14.01,2013-06-22 12:10:00,
2013-06-22 13:15:00,66.7,52.4,29.26,SW,225,0.0,0.0,60,0.00,,,0.12,VWS V14.01,2013-06-22 12:15:00,
2013-06-22 13:21:00,66.0,52.2,29.26,SSW,202,0.0,0.0,61,0.00,,,0.12,VWS V14.01,2013-06-22 12:21:00,
2013-06-22 13:26:00,66.6,52.3,29.26,SSW,202,0.0,0.0,60,0.00,,,0.12,VWS V14.01,2013-06-22 12:26:00,
2013-06-22 13:32:00,66.9,51.7,29.26,SSE,157,0.0,0.0,58,0.00,,,0.12,VWS V14.01,2013-06-22 12:32:00,
2013-06-22 13:37:00,66.7,51.9,29.26,SSW,202,0.0,0.0,59,0.00,,,0.12,VWS V14.01,2013-06-22 12:37:00,
2013-06-22 13:43:00,67.8,52.0,29.26,SSW,202,0.0,0.0,57,0.00,,,0.12,VWS V14.01,2013-06-22 12:43:00,
2013-06-22 13:49:00,68.2,51.4,29.26,SW,225,0.0,0.0,55,0.00,,,0.12,VWS V14.01,2013-06-22 12:49:00,
2013-06-22 13:55:00,66.6,50.4,29.26,South,180,0.0,0.0,56,0.00,,,0.12,VWS V14.01,2013-06-22 12:55:00,
2013-06-22 14:01:00,65.1,50.0,29.26,North,0,0.0,0.0,58,0.00,,,0.12,VWS V14.01,2013-06-22 13:01:00,
2013-06-22 14:07:00,64.6,50.0,29.26,SSW,202,0.0,0.0,59,0.00,,,0.12,VWS V14.01,2013-06-22 13:07:00,
2013-06-22 14:12:00,64.8,50.6,29.27,SW,225,0.0,0.0,60,0.00,,,0.12,VWS V14.01,2013-06-22 13:12:00,
2013-06-22 14:18:00,65.1,50.4,29.27,SW,225,0.0,0.0,59,0.00,,,0.12,VWS V14.01,2013-06-22 13:18:00,
2013-06-22 14:23:00,64.8,50.2,29.27,North,0,0.0,0.0,59,0.00,,,0.12,VWS V14.01,2013-06-22 13:23:00,
2013-06-22 14:28:00,64.2,50.0,29.27,SSW,202,0.0,0.0,60,0.00,,,0.12,VWS V14.01,2013-06-22 13:28:00,
2013-06-22 14:34:00,63.3,49.6,29.28,SSW,202,0.0,0.0,61,0.00,,,0.12,VWS V14.01,2013-06-22 13:34:00,
2013-06-22 14:40:00,62.6,51.1,29.28,SSW,202,0.0,0.0,66,0.00,,,0.12,VWS V14.01,2013-06-22 13:40:00,
2013-06-22 14:46:00,61.2,51.3,29.28,SSW,202,0.0,0.0,70,0.00,,,0.12,VWS V14.01,2013-06-22 13:46:00,
2013-06-22 14:51:00,62.2,51.9,29.28,North,0,0.0,0.0,69,0.00,,,0.12,VWS V14.01,2013-06-22 13:51:00,
2013-06-22 14:57:00,63.5,52.0,29.27,SSE,157,0.0,0.0,66,0.00,,,0.12,VWS V14.01,2013-06-22 13:57:00,
2013-06-22 15:02:00,64.0,51.6,29.27,SW,225,0.0,0.0,64,0.00,,,0.12,VWS V14.01,2013-06-22 14:02:00,
2013-06-22 15:08:00,63.1,50.3,29.27,South,180,0.0,0.0,63,0.00,,,0.12,VWS V14.01,2013-06-22 14:08:00,
2013-06-22 15:13:00,62.4,50.5,29.28,SW,225,0.0,0.0,65,0.00,,,0.12,VWS V14.01,2013-06-22 14:13:00,
2013-06-22 15:19:00,60.6,50.8,29.28,SW,225,0.0,0.0,70,0.00,,,0.12,VWS V14.01,2013-06-22 14:19:00,
2013-06-22 15:25:00,59.9,50.9,29.29,North,0,0.0,0.0,72,0.00,,,0.12,VWS V14.01,2013-06-22 14:25:00,
2013-06-22 15:31:00,60.8,51.0,29.28,North,0,0.0,0.0,70,0.00,,,0.12,VWS V14.01,2013-06-22 14:31:00,
2013-06-22 15:36:00,61.9,51.2,29.28,North,0,0.0,0.0,68,0.00,,,0.12,VWS V14.01,2013-06-22 14:36:00,
2013-06-22 15:41:00,63.0,51.9,29.28,South,180,0.0,0.0,67,0.00,,,0.12,VWS V14.01,2013-06-22 14:41:00,
2013-06-22 15:47:00,63.5,51.5,29.28,SSW,202,0.0,0.0,65,0.00,,,0.12,VWS V14.01,2013-06-22 14:47:00,
2013-06-22 15:52:00,64.2,51.8,29.28,SSW,202,0.0,0.0,64,0.00,,,0.12,VWS V14.01,2013-06-22 14:52:00,
2013-06-22 15:58:00,65.1,51.8,29.27,SW,225,0.0,0.0,62,0.00,,,0.12,VWS V14.01,2013-06-22 14:58:00,
2013-06-22 16:04:00,64.2,51.4,29.27,SW,225,0.0,0.0,63,0.00,,,0.12,VWS V14.01,2013-06-22 15:04:00,
2013-06-22 16:10:00,63.9,51.5,29.28,South,180,0.0,0.0,64,0.00,,,0.12,VWS V14.01,2013-06-22 15:10:00,
2013-06-22 16:15:00,63.7,51.3,29.28,SSW,202,0.0,0.0,64,0.00,,,0.12,VWS V14.01,2013-06-22 15:15:00,
2013-06-22 16:20:00,63.5,51.1,29.28,SW,225,0.0,0.0,64,0.00,,,0.12,VWS V14.01,2013-06-22 15:20:00,
2013-06-22 16:26:00,63.1,50.7,29.27,SW,225,0.0,0.0,64,0.00,,,0.12,VWS V14.01,2013-06-22 15:26:00,
2013-06-22 16:31:00,63.1,50.7,29.28,SW,225,0.0,0.0,64,0.00,,,0.12,VWS V14.01,2013-06-22 15:31:00,
2013-06-22 16:37:00,62.8,50.5,29.28,South,180,0.0,0.0,64,0.00,,,0.12,VWS V14.01,2013-06-22 15:37:00,
2013-06-22 16:42:00,61.9,50.4,29.28,SW,225,0.0,0.0,66,0.00,,,0.12,VWS V14.01,2013-06-22 15:42:00,
2013-06-22 16:47:00,61.3,50.7,29.28,NNE,22,0.0,0.0,68,0.00,,,0.12,VWS V14.01,2013-06-22 15:47:00,
2013-06-22 16:53:00,61.5,50.8,29.28,NNW,337,0.0,0.0,68,0.00,,,0.12,VWS V14.01,2013-06-22 15:53:00,
2013-06-22 16:58:00,62.2,51.5,29.28,SSE,157,0.0,0.0,68,0.00,,,0.12,VWS V14.01,2013-06-22 15:58:00,
2013-06-22 17:04:00,62.4,51.3,29.28,SW,225,0.0,0.0,67,0.00,,,0.12,VWS V14.01,2013-06-22 16:04:00,
2013-06-22 17:10:00,62.4,51.7,29.28,SW,225,0.0,0.0,68,0.00,,,0.12,VWS V14.01,2013-06-22 16:10:00,
2013-06-22 17:16:00,62.4,51.7,29.28,SW,225,0.0,0.0,68,0.00,,,0.12,VWS V14.01,2013-06-22 16:16:00,
2013-06-22 17:22:00,62.2,51.5,29.28,SSW,202,0.0,0.0,68,0.00,,,0.12,VWS V14.01,2013-06-22 16:22:00,
2013-06-22 17:27:00,61.9,51.2,29.28,SW,225,0.0,0.0,68,0.00,,,0.12,VWS V14.01,2013-06-22 16:27:00,
2013-06-22 17:33:00,62.2,51.1,29.28,SSW,202,0.0,0.0,67,0.00,,,0.12,VWS V14.01,2013-06-22 16:33:00,
2013-06-22 17:39:00,61.7,51.0,29.27,South,180,0.0,0.0,68,0.00,,,0.12,VWS V14.01,2013-06-22 16:39:00,
2013-06-22 17:44:00,61.9,51.2,29.27,North,0,0.0,0.0,68,0.00,,,0.12,VWS V14.01,2013-06-22 16:44:00,
2013-06-22 17:49:00,62.4,51.3,29.27,South,180,0.0,0.0,67,0.00,,,0.12,VWS V14.01,2013-06-22 16:49:00,
2013-06-22 17:54:00,62.2,51.1,29.27,SSW,202,0.0,0.0,67,0.00,,,0.12,VWS V14.01,2013-06-22 16:54:00,
2013-06-22 17:59:00,62.1,51.0,29.27,SW,225,0.0,0.0,67,0.00,,,0.12,VWS V14.01,2013-06-22 16:59:00,
2013-06-22 18:05:00,61.9,50.8,29.26,SW,225,0.0,0.0,67,0.00,,,0.12,VWS V14.01,2013-06-22 17:05:00,
2013-06-22 18:10:00,62.2,51.1,29.28,NNW,337,0.0,0.0,67,0.00,,,0.12,VWS V14.01,2013-06-22 17:10:00,
2013-06-22 18:16:00,61.9,50.8,29.27,SW,225,0.0,0.0,67,0.00,,,0.12,VWS V14.01,2013-06-22 17:16:00,
2013-06-22 18:21:00,62.1,51.0,29.27,SSW,202,0.0,0.0,67,0.00,,,0.12,VWS V14.01,2013-06-22 17:21:00,
2013-06-22 18:26:00,61.5,50.8,29.26,SW,225,0.0,0.0,68,0.00,,,0.12,VWS V14.01,2013-06-22 17:26:00,
2013-06-22 18:32:00,61.5,50.8,29.27,South,180,0.0,0.0,68,0.00,,,0.12,VWS V14.01,2013-06-22 17:32:00,
2013-06-22 18:38:00,61.3,50.7,29.27,SSW,202,0.0,0.0,68,0.00,,,0.12,VWS V14.01,2013-06-22 17:38:00,
2013-06-22 18:44:00,60.6,50.0,29.27,SSW,202,0.0,0.0,68,0.00,,,0.12,VWS V14.01,2013-06-22 17:44:00,
2013-06-22 18:49:00,60.4,50.2,29.27,South,180,0.0,0.0,69,0.00,,,0.12,VWS V14.01,2013-06-22 17:49:00,
2013-06-22 18:55:00,60.1,50.3,29.27,South,180,0.0,0.0,70,0.00,,,0.12,VWS V14.01,2013-06-22 17:55:00,
2013-06-22 19:00:00,60.3,50.1,29.27,SSW,202,0.0,0.0,69,0.00,,,0.12,VWS V14.01,2013-06-22 18:00:00,
2013-06-22 19:06:00,60.1,50.3,29.27,South,180,0.0,0.0,70,0.00,,,0.12,VWS V14.01,2013-06-22 18:06:00,
2013-06-22 19:12:00,59.9,50.1,29.27,SSW,202,0.0,0.0,70,0.00,,,0.12,VWS V14.01,2013-06-22 18:12:00,
2013-06-22 19:18:00,59.5,50.1,29.27,SW,225,0.0,0.0,71,0.00,,,0.12,VWS V14.01,2013-06-22 18:18:00,
2013-06-22 19:24:00,59.9,50.1,29.27,SW,225,0.0,0.0,70,0.00,,,0.12,VWS V14.01,2013-06-22 18:24:00,
2013-06-22 19:29:00,60.1,50.3,29.27,SW,225,0.0,0.0,70,0.00,,,0.12,VWS V14.01,2013-06-22 18:29:00,
2013-06-22 19:35:00,59.9,50.1,29.26,North,0,0.0,0.0,70,0.00,,,0.12,VWS V14.01,2013-06-22 18:35:00,
2013-06-22 19:40:00,60.4,50.6,29.26,North,0,0.0,0.0,70,0.00,,,0.12,VWS V14.01,2013-06-22 18:40:00,
2013-06-22 19:45:00,60.6,50.4,29.27,SW,225,0.0,0.0,69,0.00,,,0.12,VWS V14.01,2013-06-22 18:45:00,
2013-06-22 19:51:00,60.4,50.2,29.27,SW,225,0.0,0.0,69,0.00,,,0.12,VWS V14.01,2013-06-22 18:51:00,
2013-06-22 19:56:00,60.1,50.3,29.26,SW,225,0.0,0.0,70,0.00,,,0.12,VWS V14.01,2013-06-22 18:56:00,
2013-06-22 20:01:00,59.7,49.9,29.26,SSW,202,0.0,0.0,70,0.00,,,0.12,VWS V14.01,2013-06-22 19:01:00,
2013-06-22 20:07:00,58.8,49.4,29.26,SW,225,0.0,0.0,71,0.00,,,0.12,VWS V14.01,2013-06-22 19:07:00,
2013-06-22 20:13:00,58.6,49.6,29.26,SSW,202,0.0,0.0,72,0.00,,,0.12,VWS V14.01,2013-06-22 19:13:00,
2013-06-22 20:18:00,58.3,49.7,29.27,South,180,0.0,0.0,73,0.00,,,0.12,VWS V14.01,2013-06-22 19:18:00,
2013-06-22 20:24:00,57.9,49.7,29.27,SSW,202,0.0,0.0,74,0.00,,,0.12,VWS V14.01,2013-06-22 19:24:00,
2013-06-22 20:29:00,57.7,49.5,29.27,SSW,202,0.0,0.0,74,0.00,,,0.12,VWS V14.01,2013-06-22 19:29:00,
2013-06-22 20:34:00,57.6,49.4,29.27,South,180,0.0,0.0,74,0.00,,,0.12,VWS V14.01,2013-06-22 19:34:00,
2013-06-22 20:39:00,57.4,49.2,29.26,SSW,202,0.0,0.0,74,0.00,,,0.12,VWS V14.01,2013-06-22 19:39:00,
2013-06-22 20:45:00,57.4,49.2,29.26,SSW,202,0.0,0.0,74,0.00,,,0.12,VWS V14.01,2013-06-22 19:45:00,
2013-06-22 20:50:00,57.4,49.5,29.26,SW,225,0.0,0.0,75,0.00,,,0.12,VWS V14.01,2013-06-22 19:50:00,
2013-06-22 20:55:00,57.2,49.4,29.26,South,180,0.0,0.0,75,0.00,,,0.12,VWS V14.01,2013-06-22 19:55:00,
2013-06-22 21:00:00,57.0,49.2,29.26,SSW,202,0.0,0.0,75,0.00,,,0.12,VWS V14.01,2013-06-22 20:00:00,
2013-06-22 21:06:00,57.0,49.2,29.26,SSW,202,0.0,0.0,75,0.00,,,0.12,VWS V14.01,2013-06-22 20:06:00,
2013-06-22 21:12:00,56.7,49.2,29.26,North,0,0.0,0.0,76,0.00,,,0.12,VWS V14.01,2013-06-22 20:12:00,
2013-06-22 21:18:00,56.5,49.4,29.26,SSW,202,0.0,0.0,77,0.00,,,0.12,VWS V14.01,2013-06-22 20:18:00,
2013-06-22 21:23:00,56.3,49.2,29.26,SW,225,0.0,0.0,77,0.00,,,0.12,VWS V14.01,2013-06-22 20:23:00,
2013-06-22 21:28:00,56.3,49.2,29.26,SSW,202,0.0,0.0,77,0.00,,,0.12,VWS V14.01,2013-06-22 20:28:00,
2013-06-22 21:34:00,56.3,49.5,29.27,South,180,0.0,0.0,78,0.00,,,0.12,VWS V14.01,2013-06-22 20:34:00,
2013-06-22 21:40:00,56.3,49.5,29.27,SSW,202,0.0,0.0,78,0.00,,,0.12,VWS V14.01,2013-06-22 20:40:00,
2013-06-22 21:45:00,56.3,49.5,29.27,SSW,202,0.0,0.0,78,0.00,,,0.12,VWS V14.01,2013-06-22 20:45:00,
2013-06-22 21:51:00,56.3,49.5,29.27,SSW,202,0.0,0.0,78,0.00,,,0.12,VWS V14.01,2013-06-22 20:51:00,
2013-06-22 21:56:00,56.3,49.5,29.27,SSW,202,0.0,0.0,78,0.00,,,0.12,VWS V14.01,2013-06-22 20:56:00,
2013-06-22 22:02:00,56.1,49.7,29.27,SSW,202,0.0,0.0,79,0.00,,,0.12,VWS V14.01,2013-06-22 21:02:00,
2013-06-22 22:07:00,55.9,49.8,29.27,South,180,0.0,0.0,80,0.00,,,0.12,VWS V14.01,2013-06-22 21:07:00,
2013-06-22 22:13:00,56.1,49.7,29.27,SW,225,0.0,0.0,79,0.00,,,0.12,VWS V14.01,2013-06-22 21:13:00,
2013-06-22 22:18:00,56.3,49.9,29.26,SW,225,0.0,0.0,79,0.00,,,0.12,VWS V14.01,2013-06-22 21:18:00,
2013-06-22 22:23:00,56.3,49.9,29.26,SW,225,0.0,0.0,79,0.00,,,0.12,VWS V14.01,2013-06-22 21:23:00,
2013-06-22 22:28:00,56.5,50.1,29.27,South,180,0.0,0.0,79,0.00,,,0.12,VWS V14.01,2013-06-22 21:28:00,
2013-06-22 22:33:00,56.5,50.1,29.27,South,180,0.0,0.0,79,0.00,,,0.12,VWS V14.01,2013-06-22 21:33:00,
2013-06-22 22:38:00,56.3,50.2,29.27,SW,225,0.0,0.0,80,0.00,,,0.12,VWS V14.01,2013-06-22 21:38:00,
2013-06-22 22:44:00,55.6,49.9,29.27,South,180,0.0,0.0,81,0.00,,,0.12,VWS V14.01,2013-06-22 21:44:00,
2013-06-22 22:50:00,55.6,49.9,29.27,SW,225,0.0,0.0,81,0.00,,,0.12,VWS V14.01,2013-06-22 21:50:00,
2013-06-22 22:55:00,55.8,50.1,29.27,North,0,0.0,0.0,81,0.00,,,0.12,VWS V14.01,2013-06-22 21:55:00,
2013-06-22 23:00:00,55.8,50.1,29.27,SSW,202,0.0,0.0,81,0.00,,,0.12,VWS V14.01,2013-06-22 22:00:00,
2013-06-22 23:05:00,55.9,49.8,29.27,SSW,202,0.0,0.0,80,0.00,,,0.12,VWS V14.01,2013-06-22 22:05:00,
2013-06-22 23:11:00,55.8,49.7,29.27,South,180,0.0,0.0,80,0.00,,,0.12,VWS V14.01,2013-06-22 22:11:00,
2013-06-22 23:16:00,55.6,49.5,29.27,SW,225,0.0,0.0,80,0.00,,,0.12,VWS V14.01,2013-06-22 22:16:00,
2013-06-22 23:22:00,55.6,49.5,29.27,SW,225,0.0,0.0,80,0.00,,,0.12,VWS V14.01,2013-06-22 22:22:00,
2013-06-22 23:28:00,55.6,49.5,29.27,SW,225,0.0,0.0,80,0.00,,,0.12,VWS V14.01,2013-06-22 22:28:00,
2013-06-22 23:34:00,55.4,49.3,29.27,South,180,0.0,0.0,80,0.00,,,0.12,VWS V14.01,2013-06-22 22:34:00,
2013-06-22 23:40:00,55.2,49.2,29.27,SSW,202,0.0,0.0,80,0.00,,,0.12,VWS V14.01,2013-06-22 22:40:00,
2013-06-22 23:45:00,55.4,49.3,29.27,SSW,202,0.0,0.0,80,0.00,,,0.12,VWS V14.01,2013-06-22 22:45:00,
2013-06-22 23:51:00,55.4,49.3,29.27,SSW,202,0.0,0.0,80,0.00,,,0.12,VWS V14.01,2013-06-22 22:51:00,
2013-06-22 23:57:00,55.6,49.5,29.27,SW,225,0.0,0.0,80,0.00,,,0.12,VWS V14.01,2013-06-22 22:57:00,